Location: Unspecified
(0.0000°N, 0.0000°E)
Time: 13:39:34
(UTC+00:00)

Transit 2A - Pass Details

Date: 11 December 2021
Orbit: 591 x 967 km, 66.7° (Epoch: 17 January)

Event Time Altitude Azimuth Distance (km) Brightness Sun altitude
Rises 19:34:45 0° 168° (SSE) 2,988 9.2 -23.2°
Reaches altitude 10° 19:37:49 10° 145° (SE) 2,140 8.2 -23.9°
Enters shadow 19:37:52 10° 145° (SE) 2,131 8.2 -23.9°
